Location: Mascot Post Office (historical)
(40.2645°N, 99.5462°W)
Time: 02:32:47
(UTC+00:00)

SL-16 R/B - Pass Details

Date: 14 July 2020
Orbit: 843 x 846 km, 71.0° (Epoch: 14 August)

Event Time Altitude Azimuth Distance (km) Brightness Sun altitude
Rises 10:35:13 0° 335° (NNW) 3,414 5.5 -8.1°
Reaches altitude 10° 10:37:41 10° 335° (NNW) 2,475 4.8 -7.7°
Maximum altitude 10:43:22 82° 249° (WSW) 858 2.2 -6.9°
Drops below altitude 10° 10:49:01 10° 162° (SSE) 2,458 4.5 -6.0°
Sets 10:51:27 0° 161° (SSE) 3,389 5.2 -5.6°
